• In Kazakhstan
  • List of Countries
  • For 7 days
  • Water Temperature
  • Satellite Maps
  • Weather Map
  • News
  • Weather Widgets
  • user-avatar
    Login

    Hourly Weather Saint Paul

    Today, 22 September, Friday

    Time Temperature Precipitation Wind Pressure Humidity
    00:00 +25°C° 0.7 mm 5 mps 731 mmHg 89%
    01:00 +25°C° 1.2 mm 4 mps 731 mmHg 90%
    02:00 +25°C° 1.2 mm 4 mps 731 mmHg 92%
    03:00 +25°C° 1.2 mm 4 mps 731 mmHg 93%
    04:00 +23°C° 0.8 mm 4 mps 731 mmHg 94%
    05:00 +23°C° 0.8 mm 4 mps 732 mmHg 94%
    06:00 +23°C° 0.8 mm 4 mps 732 mmHg 94%
    07:00 +25°C° 0.3 mm 5 mps 732 mmHg 90%
    08:00 +26°C° 0.3 mm 5 mps 732 mmHg 87%
    09:00 +27°C° 0.3 mm 5 mps 732 mmHg 83%
    10:00 +28°C° 0 mm 6 mps 732 mmHg 78%
    11:00 +30°C° 0 mm 6 mps 732 mmHg 73%
    12:00 +32°C° 0 mm 6 mps 732 mmHg 67%
    13:00 +33°C° 0 mm 6 mps 732 mmHg 64%
    14:00 +34°C° 0 mm 6 mps 732 mmHg 61%
    15:00 +35°C° 0 mm 7 mps 731 mmHg 57%
    16:00 +33°C° 0 mm 6 mps 731 mmHg 60%
    17:00 +32°C° 0 mm 6 mps 731 mmHg 62%
    18:00 +30°C° 0 mm 5 mps 731 mmHg 64%
    19:00 +30°C° 0.1 mm 5 mps 731 mmHg 63%
    20:00 +29°C° 0.1 mm 6 mps 731 mmHg 61%
    21:00 +29°C° 0.1 mm 6 mps 732 mmHg 60%
    22:00 +29°C° 0 mm 6 mps 731 mmHg 61%
    23:00 +28°C° 0 mm 7 mps 731 mmHg 63%

    Tomorrow, 23 September, Saturday

    Time Temperature Precipitation Wind Pressure Humidity
    00:00 +28°C° 0 mm 7 mps 731 mmHg 65%
    01:00 +27°C° 0.7 mm 6 mps 732 mmHg 70%
    02:00 +26°C° 0.7 mm 6 mps 732 mmHg 75%
    03:00 +25°C° 0.7 mm 5 mps 732 mmHg 81%
    04:00 +25°C° 1.5 mm 5 mps 733 mmHg 84%
    05:00 +23°C° 1.5 mm 4 mps 733 mmHg 87%
    06:00 +24°C° 1.5 mm 3 mps 733 mmHg 90%
    07:00 +25°C° 0.5 mm 3 mps 734 mmHg 88%
    08:00 +25°C° 0.5 mm 4 mps 734 mmHg 86%
    09:00 +26°C° 0.5 mm 4 mps 734 mmHg 84%
    10:00 +27°C° 0 mm 5 mps 734 mmHg 78%
    11:00 +29°C° 0 mm 5 mps 734 mmHg 72%
    12:00 +30°C° 0 mm 5 mps 734 mmHg 67%
    13:00 +32°C° 0.1 mm 5 mps 734 mmHg 65%
    14:00 +32°C° 0.1 mm 5 mps 734 mmHg 62%
    15:00 +33°C° 0.1 mm 5 mps 733 mmHg 60%
    16:00 +32°C° 0.5 mm 4 mps 733 mmHg 65%
    17:00 +29°C° 0.5 mm 3 mps 734 mmHg 70%
    18:00 +28°C° 0.5 mm 2 mps 734 mmHg 75%
    19:00 +27°C° 0.4 mm 2 mps 734 mmHg 78%
    20:00 +26°C° 0.4 mm 2 mps 734 mmHg 80%
    21:00 +25°C° 0.4 mm 2 mps 734 mmHg 82%
    22:00 +25°C° 1 mm 2 mps 734 mmHg 83%
    23:00 +24°C° 1 mm 2 mps 734 mmHg 84%

    Day after tomorrow, 24 September, Sunday

    Time Temperature Precipitation Wind Pressure Humidity
    00:00 +24°C° 1 mm 2 mps 734 mmHg 84%
    01:00 +24°C° 1 mm 2 mps 734 mmHg 85%
    02:00 +24°C° 1 mm 2 mps 734 mmHg 85%
    03:00 +23°C° 1 mm 2 mps 734 mmHg 85%
    04:00 +22°C° 0.7 mm 3 mps 733 mmHg 85%
    05:00 +22°C° 0.7 mm 3 mps 733 mmHg 86%
    06:00 +22°C° 0.7 mm 3 mps 733 mmHg 86%
    07:00 +23°C° 0.2 mm 4 mps 733 mmHg 83%
    08:00 +25°C° 0.2 mm 4 mps 734 mmHg 79%
    09:00 +26°C° 0.2 mm 5 mps 734 mmHg 76%
    10:00 +27°C° 0.3 mm 5 mps 734 mmHg 72%
    11:00 +28°C° 0.3 mm 5 mps 733 mmHg 68%
    12:00 +29°C° 0.3 mm 6 mps 733 mmHg 65%
    13:00 +30°C° 0.1 mm 5 mps 733 mmHg 63%
    14:00 +30°C° 0.1 mm 4 mps 733 mmHg 62%
    15:00 +30°C° 0.1 mm 4 mps 732 mmHg 60%
    16:00 +29°C° 0.2 mm 3 mps 733 mmHg 64%
    17:00 +28°C° 0.2 mm 3 mps 733 mmHg 68%
    18:00 +27°C° 0.2 mm 2 mps 733 mmHg 72%
    19:00 +26°C° 0.5 mm 2 mps 733 mmHg 74%
    20:00 +25°C° 0.5 mm 2 mps 733 mmHg 76%
    21:00 +24°C° 0.5 mm 3 mps 733 mmHg 79%
    22:00 +24°C° 0.7 mm 2 mps 733 mmHg 82%
    23:00 +23°C° 0.7 mm 1 mps 733 mmHg 85%

    25 September, Monday

    Time Temperature Precipitation Wind Pressure Humidity
    00:00 +22°C° 0.7 mm 1 mps 733 mmHg 88%
    01:00 +22°C° 1.1 mm 1 mps 733 mmHg 89%
    02:00 +20°C° 1.1 mm 0 mps 733 mmHg 90%
    03:00 +20°C° 1.1 mm 0 mps 733 mmHg 91%
    04:00 +20°C° 1.4 mm 0 mps 733 mmHg 91%
    05:00 +21°C° 1.4 mm 1 mps 734 mmHg 91%
    06:00 +21°C° 1.4 mm 1 mps 734 mmHg 91%
    07:00 +22°C° 1 mm 1 mps 734 mmHg 90%
    08:00 +21°C° 1 mm 2 mps 734 mmHg 89%
    09:00 +23°C° 1 mm 2 mps 734 mmHg 88%
    10:00 +24°C° 0.6 mm 2 mps 734 mmHg 85%
    11:00 +24°C° 0.6 mm 2 mps 734 mmHg 81%
    12:00 +25°C° 0.6 mm 2 mps 734 mmHg 77%
    13:00 +25°C° 0.7 mm 2 mps 734 mmHg 79%
    14:00 +25°C° 0.7 mm 2 mps 734 mmHg 81%
    15:00 +24°C° 0.7 mm 2 mps 734 mmHg 82%
    16:00 +24°C° 0 mm 2 mps 734 mmHg 84%
    17:00 +23°C° 0 mm 1 mps 734 mmHg 86%
    18:00 +23°C° 0 mm 1 mps 734 mmHg 88%
    19:00 +22°C° 0.9 mm 1 mps 734 mmHg 90%
    20:00 +22°C° 0.9 mm 1 mps 734 mmHg 91%
    21:00 +21°C° 0.9 mm 1 mps 735 mmHg 93%
    22:00 +21°C° 0.8 mm 1 mps 734 mmHg 93%
    23:00 +21°C° 0.8 mm 1 mps 734 mmHg 93%

    26 September, Tuesday

    Time Temperature Precipitation Wind Pressure Humidity
    00:00 +21°C° 0.8 mm 1 mps 734 mmHg 94%
    01:00 +21°C° 0.5 mm 1 mps 734 mmHg 93%
    02:00 +21°C° 0.5 mm 1 mps 734 mmHg 93%
    03:00 +21°C° 0.5 mm 1 mps 734 mmHg 93%
    04:00 +20°C° 0.7 mm 1 mps 734 mmHg 94%
    05:00 +20°C° 0.7 mm 1 mps 734 mmHg 94%
    06:00 +20°C° 0.7 mm 1 mps 734 mmHg 95%
    07:00 +21°C° 0.4 mm 1 mps 734 mmHg 93%
    08:00 +21°C° 0.4 mm 1 mps 734 mmHg 91%
    09:00 +22°C° 0.4 mm 1 mps 735 mmHg 89%
    10:00 +23°C° 0.2 mm 1 mps 734 mmHg 86%
    11:00 +24°C° 0.2 mm 1 mps 734 mmHg 83%
    12:00 +24°C° 0.2 mm 1 mps 734 mmHg 80%
    13:00 +24°C° 0.7 mm 1 mps 734 mmHg 80%
    14:00 +25°C° 0.7 mm 1 mps 734 mmHg 79%
    15:00 +25°C° 0.7 mm 1 mps 734 mmHg 79%
    16:00 +24°C° 1.3 mm 2 mps 734 mmHg 82%
    17:00 +23°C° 1.3 mm 2 mps 734 mmHg 86%
    18:00 +21°C° 1.3 mm 2 mps 734 mmHg 90%
    19:00 +20°C° 0.2 mm 2 mps 734 mmHg 91%
    20:00 +19°C° 0.2 mm 2 mps 735 mmHg 91%
    21:00 +19°C° 0.2 mm 2 mps 735 mmHg 92%
    22:00 +18°C° 0.2 mm 2 mps 735 mmHg 93%
    23:00 +18°C° 0.2 mm 2 mps 735 mmHg 93%

    27 September, Wednesday

    Time Temperature Precipitation Wind Pressure Humidity
    00:00 +17°C° 0.2 mm 2 mps 735 mmHg 93%
    01:00 +17°C° 0.1 mm 3 mps 735 mmHg 93%
    02:00 +16°C° 0.1 mm 3 mps 735 mmHg 93%
    03:00 +16°C° 0.1 mm 3 mps 735 mmHg 92%
    04:00 +16°C° 0 mm 3 mps 735 mmHg 92%
    05:00 +14°C° 0 mm 3 mps 735 mmHg 91%
    06:00 +14°C° 0 mm 3 mps 735 mmHg 91%
    07:00 +14°C° 0 mm 3 mps 735 mmHg 90%
    08:00 +14°C° 0 mm 3 mps 735 mmHg 89%
    09:00 +14°C° 0 mm 3 mps 735 mmHg 88%
    10:00 +16°C° 0 mm 3 mps 735 mmHg 85%
    11:00 +17°C° 0 mm 3 mps 736 mmHg 81%
    12:00 +18°C° 0 mm 3 mps 736 mmHg 78%
    13:00 +18°C° 0 mm 4 mps 736 mmHg 78%
    14:00 +17°C° 0 mm 4 mps 735 mmHg 78%
    15:00 +17°C° 0 mm 4 mps 735 mmHg 77%
    16:00 +17°C° 0 mm 4 mps 735 mmHg 78%
    17:00 +16°C° 0 mm 3 mps 735 mmHg 79%
    18:00 +16°C° 0 mm 3 mps 736 mmHg 80%
    19:00 +14°C° 0 mm 3 mps 736 mmHg 81%
    20:00 +14°C° 0 mm 3 mps 736 mmHg 83%
    21:00 +13°C° 0 mm 3 mps 736 mmHg 85%
    22:00 +13°C° 0 mm 3 mps 736 mmHg 87%
    23:00 +12°C° 0 mm 3 mps 736 mmHg 89%
    Show more